www.pogodaiklimat.ru

Погода и климат >> Архив погоды >> Россия >> Нижегородская область >> Красные Баки


ПОГОДА в Красных Баках

  • Прогноз погоды в Красных Баках
  • Монитор погоды в Красных Баках

АРХИВ ПОГОДЫ в Красных Баках

Время (UTC), дата Ветер
(напр.,м/с)
 
Видим.   Явления Облачность Т
(С)
Тd
(С)
f
(%)
Тe
(С)
Тes
(С)
Комфортность P
(гПа)
Po
(гПа)
Тmin
(С)
Tmax
(С)
R
(мм)
R24
(мм)
S
(см)
00 15.08 штиль 0
{2}
10 км 6/0
[Ac trans]
+13.5 +12.6 94 +13 +13 1014.3 1001.2
03 15.08 ЮВ 1-1
{1}
900 м туман ясно +14.7 +13.6 93 +15 +16 1013.7 1000.6 +13.4
06 15.08 Ю 1-3
{5}
20 км {туман} 10/10 1000 м
[Sc]
+17.7 +16.2 91 +19 +19 1014.1 1001.2
09 15.08 Ю 4-8
{8}
20 км 9/4 1000 м
[Cu med, cong Ci fib]
+23.4 +16.7 66 +28 +32 душно 1011.2 998.5
12 15.08 Ю 3-9
{10}
20 км 8/0
[Ac trans Ci fib]
+26.7 +16.5 54 +30 +34 душно 1009.4 996.9
15 15.08 ЮВ 2-2
{9}
20 км 9/9 1000 м
[Cb cap]
+25.7 +19.5 69 +31 +31 очень
душно
1008.6 996.1 +26.8
18 15.08 З 2-2
{12}
10 км гроза, ливневой дождь 10/10 600 м
[Cb cap]
+19.1 +18.3 95 +21 +21 комфорт 1011.1 998.3
21 15.08 СЗ 3-4
{5}
10 км {гроза, ливн. осадки} 6/6 1000 м
[Sc]
+17.3 +16.4 94 +17 +17 1013.1 1000.2
00 16.08 СЗ 2-3
{5}
10 км в посл. час гроза {ливн. осадки} 8/8 1000 м
[Cb cap]
+15.0 +13.9 93 +15 +15 1014.5 1001.4
03 16.08 СЗ 2-3
{7}
20 км гроза, ливневой дождь 10/10 600 м
[Cb cap]
+14.3 +13.4 94 +14 +14 1015.3 1002.2 +14.2 6
06 16.08 СВ 2-4
{5}
20 км гроза, ливневой дождь 10/10 600 м
[Cb cap]
+14.4 +13.1 92 +14 +14 1014.7 1001.6
09 16.08 ЮЗ 1-5
{5}
8000 м слаб. ливневой дождь {гроза} 10/10
[Cb cap]
+15.2 +13.9 92 +16 +16 1016.3 1003.1
12 16.08 СВ 1-2
{4}
20 км {гроза, ливн. осадки} 10/10 600 м
[Cb cap]
+16.1 +13.6 85 +17 +17 1015.1 1002.1
15 16.08 С 1-2
{5}
9000 м слаб. морось 10/10 300 м
[St]
+15.5 +13.7 89 +16 +16 1015.1 1002.1 +16.2 9
18 16.08 СВ 1-2
{2}
2000 м слаб. морось 10/10 300 м
[St]
+14.6 +13.5 93 +15 +15 1015.8 1002.6
21 16.08 С 1-2
{2}
2000 м слаб. дождь {морось} 10/0 300 м
[As op]
+14.6 +13.5 93 +15 +15 1016.0 1002.8
00 17.08 С 2-3
{3}
2000 м {дождь, морось} 10/0 600 м
[As op]
+14.5 +13.4 93 +14 +14 1016.4 1003.2
03 17.08 С 2-3
{3}
20 км 10/0 600 м
[As op]
+14.4 +13.3 93 +14 +14 1016.1 1002.9 +14.3 3
06 17.08 СВ 2-3
{5}
20 км 10/0 600 м
[As op]
+15.5 +14.2 92 +15 +17 1016.4 1003.3
09 17.08 СВ 2-3
{5}
13 км слаб. морось {дождь} 10/0 600 м
[As op]
+15.7 +14.7 94 +16 +18 1016.9 1003.8
12 17.08 СВ 2-3
{5}
20 км {дождь, морось} 10/0 600 м
[As op]
+17.1 +15.6 91 +17 +19 1016.9 1003.9
15 17.08 СВ 2-4
{5}
20 км 10/0 600 м
[As op]
+17.1 +15.4 90 +17 +17 1016.8 1003.8 +17.3 0.6
18 17.08 В 1-4
{4}
10 км слаб. дождь 10/0 600 м
[As op]
+16.5 +15.5 94 +17 +17 1016.7 1003.6
21 17.08 В 2-3
{4}
10 км слаб. дождь 10/0 600 м
[As op]
+16.5 +15.5 94 +17 +17 1015.8 1002.7
00 18.08 В 1-2
{4}
10 км слаб. дождь 10/0 600 м
[As op]
+16.6 +15.6 94 +17 +17 1016.0 1002.9
03 18.08 ЮВ 1-2
{4}
10 км слаб. дождь 10/0 600 м
[As op]
+16.7 +16.2 97 +18 +18 1014.7 1001.7 +16.3 14
06 18.08 СВ 2-5
{7}
15 км слаб. дождь 10/0 600 м
[As op]
+17.2 +16.2 94 +18 +19 1013.7 1000.8
09 18.08 В 3-7
{8}
20 км {дождь} 10/10 600 м
[Sc]
+18.5 +16.7 89 +19 +19 1013.5 1000.6
12 18.08 В 3-5
{7}
20 км {дождь} 10/10 600 м
[Sc]
+21.7 +18.5 82 +26 +26 душно 1013.3 1000.5
15 18.08 СВ 1-2
{5}
20 км 9/0
[Ac trans]
+22.5 +19.7 84 +29 +29 очень
душно
1013.5 1000.8 +22.6 1
18 18.08 С 1-2
{3}
10 км 6/0
[Ac trans]
+20.2 +19.0 93 +25 +25 комфорт 1014.3 1001.5
21 18.08 штиль 0
{2}
500 м туман ?/? +18.9 +18.1 95 +20 +20 1014.4 1001.6
00 19.08 ЮВ 1-2
{2}
500 м туман ?/? +17.9 +17.1 95 +19 +19 1015.0 1002.1
03 19.08 ЮВ 2-3
{8}
15 км ливневой дождь {гроза} 10/10 600 м
[Cb cap]
+18.5 +17.4 93 +20 +20 1014.9 1002.0 +17.8 3
06 19.08 Ю 2-4
{6}
20 км в посл. час ливневой дождь {гроза} 9/8 1000 м
[Cb cap Ac As]
+19.6 +17.5 88 +23 +23 комфорт 1015.6 1002.7
09 19.08 Ю 2-4
{7}
20 км 10/10 600 м
[Cb cap]
+22.6 +18.0 75 +28 +28 душно 1015.1 1002.3
12 19.08 Ю 3-6
{7}
20 км 8/8 600 м
[Cu med, cong]
+24.3 +17.4 65 +28 +29 душно 1014.9 1002.2
15 19.08 З 3-5
{7}
20 км 4/4 1000 м
[Cu med, cong]
+23.1 +15.7 63 +27 +28 душно 1016.2 1003.5 +24.4 0.0
18 19.08 З 2-4
{5}
10 км 3/3 1000 м
[Sc diur, vesp]
+18.1 +15.2 83 +19 +19 1017.6 1004.6
21 19.08 З 3-6
{7}
10 км 6/6 1000 м
[Sc]
+17.1 +14.3 84 +17 +17 1017.8 1004.7
00 20.08 З 2-4
{6}
10 км 6/6 1000 м
[Sc]
+15.7 +13.9 89 +16 +16 1018.8 1005.7
03 20.08 З 2-4
{5}
20 км 3/3 1000 м
[Sc]
+15.5 +13.9 90 +15 +16 1019.8 1006.7 +15.4
06 20.08 З 1-3
{4}
20 км 6/6 1000 м
[Cu hum]
+19.7 +16.9 84 +23 +26 комфорт 1020.5 1007.5
09 20.08 С 2-4
{5}
20 км 8/8 1000 м
[Cu med, cong]
+22.7 +15.1 62 +27 +29 душно 1020.8 1007.9
12 20.08 СЗ 2-4
{5}
20 км 6/6 1000 м
[Cu med, cong]
+25.1 +14.1 50 +27 +30 жарко 1020.5 1007.7
15 20.08 З 1-2
{4}
20 км 4/4 1000 м
[Cu med, cong]
+24.7 +13.6 50 +27 +27 жарко 1020.5 1007.7 +25.3
18 20.08 З 2-2
{3}
20 км 6/6 1000 м
[Sc diur, vesp]
+18.5 +16.2 86 +20 +20 1021.6 1008.5
21 20.08 штиль 0
{2}
10 км 6/0
[Ci fib]
+16.7 +14.8 89 +17 +17 1022.1 1008.9
00 21.08 штиль 0
{1}
10 км ясно +14.3 +12.8 91 +14 +14 1022.2 1009.0
03 21.08 Ю 1-1
{2}
20 км 4/0
[Ci fib]
+14.0 +13.4 96 +14 +15 1022.5 1009.3 +14.2
06 21.08 ЮЗ 2-4
{4}
20 км 3/0
[Ci fib]
+23.4 +15.6 62 +28 +34 душно 1022.5 1009.7
09 21.08 ЮЗ 2-3
{5}
20 км 6/6 1000 м
[Cu med, cong]
+25.7 +16.9 58 +29 +34 душно 1021.8 1009.1
12 21.08 СЗ 3-5
{8}
20 км 8/8 1000 м
[Cu med, cong]
+25.5 +17.9 63 +30 +31 душно 1022.1 1009.4
15 21.08 СЗ 2-4
{10}
20 км 4/0
[Ci fib]
+23.1 +16.4 66 +28 +28 душно 1022.4 1009.6 +25.8
18 21.08 СЗ 2-3
{4}
10 км 4/0
[Ci]
+19.3 +16.3 83 +22 +22 комфорт 1022.9 1009.9
21 21.08 штиль 0
{3}
10 км 4/0
[Ci fib]
+16.3 +14.8 91 +16 +16 1022.9 1009.7

 

Местоположение метеостанции Красные Баки (Нижегородская область, Россия): широта 57.13 долгота 45.17 высота над уровнем моря 110 м.

В архиве по умолчанию представлена погода в Красных Баках за последнюю неделю. Архивные данные за месяц целиком и за предыдущие месяцы, начиная с января 2011 года, Вы можете получить, выбрав интересующий диапазон дат из раскрывающегося списка и нажав кнопку "Ввод!".


*Определитесь, кто Вы:
робот инопланетянин человек

Внимание! Время в таблицах - всемирное. Для получения местного времени необходимо прибавить поправку, которая равна 3 ч.

Смотрите также архив погоды в соседних городах и на ближайших метеорологических станциях:

Погода в Воскресенском (Нижегородская область, Россия) (39 км)
Погода в Семенове (Нижегородская область, Россия) (59 км)
Погода в Ветлуге (Нижегородская область, Россия) (88 км)
Погода в Шахунье (Нижегородская область, Россия) (106 км)
Погода в Волжской ГМО (Нижегородская область, Россия) (117 км)
Погода в Нижнем Новгороде (Нижегородская область, Россия) (119 км)
Погода в Макарьеве (Костромская область, Россия) (120 км)
Погода в Козьмодемьянске (Марий-Эл, Россия) (124 км)
Погода в Лысково (Нижегородская область, Россия) (125 км)
Погода в Юрьевце (Ивановская область, Россия) (125 км)

Пояснения к столбцам:

Ветер - указаны скорость ветра в м/с - средняя за 10 мин, порывы в срок и между сроками (в фигурных скобках) и направление, откуда дует ветер: С - северный, СВ - северо-восточный, В - восточный, ЮВ - юго-восточный, Ю - южный, ЮЗ - юго-западный, З - западный, СЗ - северо-западный.
Видимость - горизонтальная дальность видимости в метрах или километрах. При видимости от 1 до 10 км при отсутствии осадков обычно наблюдается дымка, при ухудшении видимости до 1 км и менее - туман. В сухую погоду видимость может ухудшаться дымом, пылью или мглою.
Явления - указаны атмосферные явления, наблюдавшиеся в срок или в последний час перед сроком; фигурными скобками обозначены явления, наблюдавшиеся между сроками (за 1-3 часа до срока); квадратными скобками обозначены град или гололедные отложения с указанием их диаметра в мм.
Облачность - указаны через наклонную черту общая и нижняя облачность в баллах и высота нижней границы облаков в метрах; квадратными скобками обозначены формы облаков: Ci - перистые, Cs - перисто-слоистые, Cc - перисто-кучевые, Ac - высококучевые, As - высокослоистые, Sc - слоисто-кучевые, Ns - слоисто-дождевые, Cu - кучевые, Cb - кучево-дождевые. Подробнее классификацию облаков см. в Атласе облаков (PDF).
T - Температура воздуха - температура, измеренная на высоте 2 м над землей.
Td - Температура точки росы - температура, при понижении до которой содержащийся в воздухе водяной пар достигнет насыщения.
f - Относительная влажность воздуха - влажноcть воздуха, измеренная на высоте 2 м над землей.
Te - Эффективная температура - температура, которую ощущает одетый по сезону человек в тени. Характеристика душности погоды. При расчете учитывается влияние влажности воздуха и скорости ветра на теплоощущения человека.
Tes - Эффективная температура на солнце - температура, которую ощущает человек, с поправкой на солнечный нагрев. Характеристика знойности погоды. Зависит от высоты солнца над горизонтом, облачности и скорости ветра. Ночью, в пасмурную погоду, а также при ветре 12 м/с и более поправка равна нулю.
P - Атмосферное давление - приведенное к уровню моря атмосферное давление.
Po - Атмосферное давление - измеренное на уровне метеостанции атмосферное давление.
Tmin - Минимальная температура - минимум температуры воздуха на высоте 2 м над землей.
Tmax - Максимальная температура - максимум температуры воздуха на высоте 2 м над землей.
R - Количество осадков - Количество выпавших осадков за период времени, мм. При наведении курсора мыши на число - период времени, за который выпало указанное количество осадков.
R24 - Количество осадков - Количество выпавших осадков за 24 часа, мм.
S - Снежный покров - Высота снежного покрова, см. При наведении курсора мыши на число - состояние снежного покрова и степень покрытия местности в баллах.